Regional Weather Roundup
Issued by NWS State College, PA

Home | Current Version | Previous Version | Text Only | Print | Product List | Glossary On
Versions: 1 2 3 4 5 6 7 8 9 10 11 12 13 14 15 16 17 18 19 20 21 22 23 24 25 26 27 28 29 30 31 32 33 34 35 36 37 38 39 40 41 42 43 44 45 46 47 48 49 50
000
ASUS41 KCTP 170410
RWRCTP

REGIONAL WEATHER ROUNDUP
NATIONAL WEATHER SERVICE STATE COLLEGE PA
1200 AM EDT MON MAY 17 2021

Note: "fair" indicates few or no clouds below 12,000 feet with no
significant weather and/or obstructions to visibility.

* = STATION THAT DOES NOT REPORT PRECIPITATION /E.G. RAIN...SNOW...ETC/
    THUNDER OR FOG.

PAZ002>004-007>009-013>016-020>023-029>032-170500-
WESTERN PENNSYLVANIA

CITY           SKY/WX    TMP DP  RH WIND       PRES   REMARKS
ERIE           PTCLDY    54  41  61 S3        30.24S
MEADVILLE      PTCLDY    55  35  47 CALM      30.25S
FRANKLIN       PTCLDY    51  42  71 CALM      30.27R
NEW CASTLE     FAIR      51  45  79 CALM      30.25R
BEAVER COUNTY  PTCLDY    58  40  50 S3        30.25S
BUTLER         PTCLDY    47  44  90 NE3       30.26R
PITTSBURGH INT MOCLDY    54  43  66 CALM      30.24R
PITTSBURGH     PTCLDY    56  45  66 SE5       30.24R
INDIANA*       PTCLDY    50  43  76 CALM      30.29S
LATROBE        PTCLDY    50  45  81 CALM      30.25S
WASHINGTON CO* MOCLDY    49  45  86 CALM      30.28R
$$

PAZ004>006-010>012-017>019-024>028-033>037-041-042-045-046-049>053-170500-
CENTRAL PENNSYLVANIA

CITY           SKY/WX    TMP DP  RH WIND       PRES   REMARKS
BRADFORD       CLEAR     44  38  79 CALM      30.28R
ST MARYS       MOCLDY    46  39  76 CALM      30.31R
DUBOIS         CLEAR     50  39  66 E3        30.26S
CLEARFIELD     CLEAR     45  41  86 N8        30.27S
JOHNSTOWN      PTCLDY    50  42  74 S5        30.26R
SOMERSET       FAIR      46  43  87 S5        30.28R
ALTOONA        PTCLDY    52  43  71 CALM      30.27S
STATE COLLEGE  CLEAR     48  43  81 CALM      30.27S
REEDSVILLE     FAIR      48 N/A N/A CALM      30.27R
WELLSBORO      FAIR      52  39  62 SW5       30.28R
WILLIAMSPORT   PTCLDY    52  44  74 CALM      30.27S
SELINSGROVE    CLEAR     48  45  89 CALM      30.28S
FT INDIANTOWN  PTCLDY    49  44  84 NE5       30.27F
CAPITAL CITY   CLOUDY    55  52  89 S3        30.27S
HARRISBURG     CLOUDY    56  51  84 CALM      30.26S
YORK           CLOUDY    53  51  93 CALM      30.28R
$$

PAZ038>040-043-044-047-048-054-055-060>062-067>071-170500-
EASTERN PENNSYLVANIA

CITY           SKY/WX    TMP DP  RH WIND       PRES   REMARKS
TOWANDA        MOCLDY    54  54 100 CALM      30.30R
SCRANTON       PTCLDY    50  44  80 S3        30.28R
MOUNT POCONO   PTCLDY    45  42  89 NW5       30.28R
HAZLETON       FAIR      46  45  93 CALM      30.31R
LEHIGHTON      FAIR      46  45  93 CALM      30.29R
ALLENTOWN      CLOUDY    55  44  66 W7        30.27R
QN CITY/ALNTWN MOCLDY    54  46  76 S3        30.29R
QUAKERTOWN*    CLEAR     50  50 100 CALM      30.28R FOG
PERKASIE*      CLOUDY    48  48 100 CALM      30.28S
DOYLESTOWN     PTCLDY    53  44  71 CALM      30.27R
READING        CLOUDY    56  49  77 CALM      30.26S
LANCASTER      PTCLDY    52  47  83 NE5       30.26F
COATESVILLE    PTCLDY    54  48  82 CALM      30.28S
WEST CHESTER   PTCLDY    54  46  76 CALM      30.27F
POTTSTOWN      PTCLDY    51  45  79 CALM      30.28S
BLUE BELL      PTCLDY    49  46  87 CALM      30.27S
NORTH PHILA    PTCLDY    56  44  64 W5        30.28R
PHILADELPHIA   PTCLDY    59  46  62 N5        30.27S
$$



USA.gov is the U.S. government's official web portal to all federal, state and local government web resources and services.